Regional Weather Roundup
Issued by NWS Goodland, KS

Home | Current Version | Previous Version | Graphics & Text | Print | Product List | Glossary On
Versions: 1 2 3 4 5 6 7 8 9 10 11 12 13 14 15 16 17 18 19 20 21 22 23 24 25 26 27 28 29 30 31 32 33 34 35 36 37 38 39 40 41 42 43 44 45 46 47 48 49 50
072
ASUS43 KGLD 260308
RWRGLD

GOODLAND FORECAST AREA HOURLY WEATHER ROUNDUP
NATIONAL WEATHER SERVICE GOODLAND KS
900 PM MDT TUE APR 25 2017

...OFFICIAL OBSERVATIONS...

CITY           SKY/WX    TMP DP  RH WIND       PRES   REMARKS
GOODLAND KS    CLOUDY    45  40  82 NE20      29.71R
HILL CITY KS   CLOUDY    44  38  79 N16G23    29.71R
IMPERIAL NEB   CLOUDY    38  34  85 NE18      29.78R
MCCOOK NEB     CLOUDY    40  34  79 N17       29.75R
AKRON CO       CLOUDY    38  35  89 N15       29.77R
BURLINGTON CO  NOT AVBL
LIMON CO       LGT RAIN  39  38  96 NE18G28   29.73R
$$

...UNOFFICIAL OBSERVATIONS...

CITY           SKY/WX    TMP DP  RH WIND       PRES   REMARKS
LENORA KS        N/A     41  32  70 MISG        N/A
NORTON KS      CLOUDY    39  32  75 N14G25    29.72
SHARON SPRINGS   N/A     49  42  77 NE12G23     N/A
TRENTON NEB      N/A     39  32  76 N12         N/A
KIT CARSON CO    N/A     41  37  84 MISG        N/A
$$




USA.gov is the U.S. government's official web portal to all federal, state and local government web resources and services.